Weather History for KFEP - November, 2012

Change the Weather History Date:

Tuesday, November 20, 2012

  Actual Average Record
Temperature  
Mean Temperature 50 °F -  
Max Temperature 59 °F 47 °F 65 °F (1975)
Min Temperature 41 °F 27 °F 7 °F (2014)
Degree Days  
Heating Degree Days 15    
Moisture  
Dew Point 45 °F    
Average Humidity 84    
Maximum Humidity 95    
Minimum Humidity 70    
Precipitation  
Precipitation 0.00 in - - ()
Sea Level Pressure  
Sea Level Pressure 30.14 in    
Wind  
Wind Speed 3 mph (West)    
Max Wind Speed 8 mph    
Max Gust Speed -    
Visibility 5 miles    
Events Fog    
Averages and records for this station are not official NWS values.
T = Trace of Precipitation, MM = Missing Value Source: NWS Daily Summary

Daily Weather History Graph

Daily Weather History Graph

Search for Another Location

Airport or City:

Trip Planner

Search our weather history database for the weather conditions in past years. The results will help you decide how hot, cold, wet, or windy it might be!

Date:

Astronomy

Nov. 20, 2012 Rise Set
Actual Time 6:55 AM CST 4:32 PM CST
Civil Twilight 6:24 AM CST 5:02 PM CST
Nautical Twilight 5:50 AM CST 5:37 PM CST
Astronomical Twilight 5:17 AM CST 6:10 PM CST
Moon 12:25 PM CST (11/20) No Moon Set
Length of Visible Light 10h 37m
Length of Day
9h 36m
First Quarter, 51% of the Moon is Illuminated
Nov 20
First Quarter
Nov 28
Full
Dec 6
Last Quarter
Dec 13
New
Dec 19
First Quarter

Hourly Weather History & Observations

Time (CST) Temp. Windchill Dew Point Humidity Pressure Visibility Wind Dir Wind Speed Gust Speed Precip Events Conditions
12:15 AM 47.8 °F - 42.8 °F 83% 30.10 in 10.0 mi SSW 4.6 mph - N/A   Overcast
12:35 AM 47.8 °F - 42.8 °F 83% 30.10 in 7.0 mi SSW 3.5 mph - N/A   Overcast
12:55 AM 48.2 °F - 42.8 °F 82% 30.09 in 7.0 mi SSW 3.5 mph - N/A   Overcast
1:15 AM 47.5 °F - 42.8 °F 84% 30.09 in 7.0 mi SSW 3.5 mph - N/A   Overcast
1:35 AM 48.2 °F - 42.8 °F 82% 30.09 in 7.0 mi Calm Calm - N/A   Overcast
1:55 AM 46.9 °F - 42.6 °F 85% 30.09 in 7.0 mi SSE 3.5 mph - N/A   Overcast
2:15 AM 46.9 °F - 42.8 °F 86% 30.09 in 7.0 mi Calm Calm - N/A   Overcast
2:35 AM 46.4 °F - 42.1 °F 85% 30.09 in 7.0 mi Calm Calm - N/A   Overcast
6:15 AM 46.4 °F - 43.0 °F 88% 30.11 in 5.0 mi Calm Calm - N/A   Overcast
6:35 AM 46.4 °F - 42.8 °F 87% 30.11 in 7.0 mi Calm Calm - N/A   Overcast
6:55 AM 46.4 °F - 42.8 °F 87% 30.11 in 5.0 mi Calm Calm - N/A   Overcast
7:15 AM 46.4 °F - 42.8 °F 87% 30.12 in 5.0 mi Calm Calm - N/A   Overcast
7:35 AM 46.4 °F - 42.8 °F 87% 30.12 in 5.0 mi Calm Calm - N/A   Overcast
7:55 AM 46.4 °F - 42.8 °F 87% 30.13 in 5.0 mi Calm Calm - N/A   Overcast
8:15 AM 47.3 °F - 43.2 °F 86% 30.13 in 5.0 mi SW 3.5 mph - N/A   Mostly Cloudy
8:35 AM 48.6 °F - 44.2 °F 85% 30.14 in 5.0 mi Calm Calm - N/A   Haze
8:55 AM 48.0 °F - 43.7 °F 85% 30.13 in 5.0 mi Calm Calm - N/A   Scattered Clouds
9:15 AM 49.6 °F - 45.1 °F 84% 30.13 in 5.0 mi Calm Calm - N/A   Haze
9:35 AM 51.8 °F - 46.4 °F 82% 30.14 in 5.0 mi Calm Calm - N/A   Haze
9:55 AM 54.0 °F - 48.7 °F 82% 30.14 in 5.0 mi NNW 4.6 mph - N/A   Haze
10:15 AM 54.0 °F - 48.6 °F 82% 30.14 in 5.0 mi NNW 4.6 mph - N/A   Haze
10:35 AM 53.6 °F - 48.2 °F 82% 30.14 in 5.0 mi Calm Calm - N/A   Haze
10:55 AM 54.0 °F - 47.8 °F 80% 30.14 in 7.0 mi North 4.6 mph - N/A   Clear
11:15 AM 54.0 °F - 47.3 °F 78% 30.14 in 7.0 mi NNW 4.6 mph - N/A   Clear
11:35 AM 55.6 °F - 48.0 °F 76% 30.13 in 7.0 mi Calm Calm - N/A   Scattered Clouds
11:55 AM 55.4 °F - 48.2 °F 77% 30.12 in 7.0 mi Calm Calm - N/A   Scattered Clouds
12:15 PM 56.5 °F - 48.4 °F 74% 30.12 in 7.0 mi WNW 5.8 mph - N/A   Scattered Clouds
12:35 PM 56.5 °F - 48.4 °F 74% 30.13 in 7.0 mi Calm Calm - N/A   Scattered Clouds
12:55 PM 59.0 °F - 49.8 °F 72% 30.12 in 7.0 mi West 4.6 mph - N/A   Scattered Clouds
1:15 PM 59.0 °F - 49.5 °F 71% 30.12 in 7.0 mi West 8.1 mph - N/A   Scattered Clouds
1:35 PM 59.0 °F - 49.6 °F 71% 30.11 in 7.0 mi WNW 4.6 mph - N/A   Clear
1:55 PM 59.0 °F - 49.1 °F 70% 30.11 in 7.0 mi West 6.9 mph - N/A   Scattered Clouds
2:15 PM 59.0 °F - 49.1 °F 70% 30.11 in 10.0 mi West 8.1 mph - N/A   Clear
2:35 PM 59.0 °F - 49.1 °F 70% 30.11 in 10.0 mi West 8.1 mph - N/A   Clear
2:55 PM 59.0 °F - 49.1 °F 70% 30.12 in 10.0 mi West 4.6 mph - N/A   Clear
3:15 PM 59.0 °F - 49.1 °F 70% 30.12 in 10.0 mi West 6.9 mph - N/A   Clear
3:35 PM 56.5 °F - 47.5 °F 72% 30.13 in 10.0 mi West 8.1 mph - N/A   Clear
3:55 PM 55.4 °F - 46.4 °F 72% 30.14 in 10.0 mi West 6.9 mph - N/A   Clear
4:15 PM 54.0 °F - 48.2 °F 81% 30.14 in 7.0 mi West 5.8 mph - N/A   Clear
4:35 PM 52.9 °F - 48.0 °F 84% 30.15 in 5.0 mi West 6.9 mph - N/A   Haze
4:55 PM 49.6 °F - 45.3 °F 85% 30.15 in 5.0 mi West 3.5 mph - N/A   Haze
5:15 PM 48.2 °F - 44.6 °F 87% 30.16 in 5.0 mi WNW 3.5 mph - N/A   Clear
5:35 PM 46.4 °F 42.9 °F 43.0 °F 88% 30.16 in 5.0 mi WNW 6.9 mph - N/A   Clear
5:55 PM 44.4 °F 42.0 °F 41.7 °F 90% 30.17 in 3.0 mi WNW 4.6 mph - N/A   Clear
6:15 PM 44.4 °F - 42.1 °F 91% 30.17 in 2.5 mi Calm Calm - N/A   Clear
6:35 PM 44.6 °F 42.2 °F 42.3 °F 91% 30.18 in 3.0 mi West 4.6 mph - N/A   Clear
6:55 PM 43.7 °F 40.3 °F 41.5 °F 92% 30.18 in 1.5 mi West 5.8 mph - N/A   Scattered Clouds
7:15 PM 43.7 °F 41.1 °F 41.9 °F 93% 30.17 in 0.2 mi West 4.6 mph - N/A Fog Fog
7:35 PM 43.7 °F 41.1 °F 41.9 °F 93% 30.17 in 0.2 mi West 4.6 mph - N/A Fog Fog
7:55 PM 43.7 °F 40.3 °F 41.9 °F 93% 30.18 in 0.2 mi West 5.8 mph - N/A Fog Fog
8:15 PM 43.7 °F 42.1 °F 41.9 °F 93% 30.19 in 0.2 mi West 3.5 mph - N/A Fog Fog
8:35 PM 43.7 °F 40.3 °F 41.9 °F 93% 30.19 in 0.2 mi West 5.8 mph - N/A Fog Fog
8:55 PM 43.7 °F 41.1 °F 41.9 °F 93% 30.19 in 0.2 mi WNW 4.6 mph - N/A Fog Fog
9:15 PM 43.7 °F 42.1 °F 41.9 °F 93% 30.19 in 0.2 mi WNW 3.5 mph - N/A Fog Fog
9:35 PM 43.7 °F - 41.9 °F 93% 30.19 in 0.2 mi Calm Calm - N/A Fog Fog
9:55 PM 44.6 °F - 42.8 °F 93% 30.18 in 0.2 mi Calm Calm - N/A Fog Fog
10:15 PM 43.7 °F - 41.9 °F 93% 30.18 in 0.2 mi Calm Calm - N/A Fog Fog
10:35 PM 43.3 °F - 41.7 °F 94% 30.19 in 0.2 mi Calm Calm - N/A Fog Fog
10:55 PM 41.4 °F - 39.9 °F 95% 30.19 in 0.2 mi Calm Calm - N/A Fog Fog
11:15 PM 41.2 °F 39.2 °F 39.6 °F 94% 30.20 in 0.2 mi West 3.5 mph - N/A Fog Fog
11:35 PM 41.2 °F - 39.6 °F 94% 30.20 in 0.2 mi Calm Calm - N/A Fog Fog
11:55 PM 41.2 °F - 39.6 °F 94% 30.19 in 0.2 mi Calm Calm - N/A Fog Fog